User: anonymous   Login
Location: Wawayanda State Park
(41.1833°N, 74.4333°W)
Time: 07:57:39
(UTC-04:00)
Language:

RESURS DK-1 - Orbit

View from above orbital plane
View from above orbital plane
View from above satellite
View from above satellite

Ground track
Ground track

The orbit data is extracted from the following two-line orbital elements,

1 29228U 06021A   15182.08981465  .00000408  00000-0  38938-4 0  9997
2 29228 069.9368 121.7463 0005181 323.6396 127.1764 15.01537864500437
Epoch (UTC): 01 July 2015 02:09:19
Eccentricity: 0.0005181
inclination: 69.9368°
perigee height: 558 km
apogee height: 566 km
right ascension of ascending node: 121.7463°
argument of perigee: 323.6396°
revolutions per day: 15.01537864
mean anomaly at epoch: 127.1764°
orbit number at epoch: 50043

The dashed part of the orbit path shows where the satellite is in the earth's shadow,  

DLR